Location: Heidgraben
(53.7081°N, 9.6576°E)
Time: 02:21:29
(UTC+00:00)

Meteor 2-3 Rocket - Visible Passes

Search period start: 23 October 2020 00:00
Search period end: 02 November 2020 00:00
Orbit: 841 x 887 km, 81.2° (Epoch: 22 October)

Date Brightness Start Highest point End Pass type
(mag) Time Alt. Az. Time Alt. Az. Time Alt. Az.
23 Oct 5.4 17:19:17 10° NNE 17:22:13 14° NE 17:23:26 13° ENE visible
23 Oct 4.1 19:01:09 10° N 19:05:44 50° NNE 19:05:44 50° NNE visible
23 Oct 5.7 20:44:51 10° NNW 20:48:01 25° WNW 20:48:01 25° WNW visible
24 Oct 5.4 17:11:11 10° NNE 17:14:06 14° NE 17:15:37 13° ENE visible
24 Oct 4.0 18:53:02 10° N 18:57:55 53° NE 18:57:55 53° NE visible
24 Oct 5.6 20:36:45 10° NNW 20:40:13 26° WNW 20:40:13 26° WNW visible
25 Oct 5.4 17:03:05 10° NNE 17:06:00 14° NE 17:07:49 12° ENE visible
25 Oct 3.9 18:44:56 10° N 18:50:08 55° NE 18:50:08 55° NE visible
25 Oct 5.5 20:28:38 10° NNW 20:32:26 28° WNW 20:32:26 28° WNW visible
26 Oct 5.4 16:54:59 10° NNE 16:57:53 14° NE 17:00:06 11° ENE visible
26 Oct 3.8 18:36:49 10° N 18:42:24 57° ENE 18:42:24 57° ENE visible
26 Oct 5.4 20:20:31 10° NNW 20:24:42 29° WNW 20:24:42 29° WNW visible
27 Oct 5.4 16:46:53 10° NNE 16:49:47 14° NE 16:52:25 11° ENE visible
27 Oct 3.8 18:28:43 10° N 18:34:22 56° ENE 18:34:44 55° E visible
27 Oct 5.4 20:12:24 10° NNW 20:17:02 30° W 20:17:02 30° W visible
28 Oct 5.4 16:38:47 10° NNE 16:41:40 14° NE 16:44:33 10° ENE visible
28 Oct 3.8 18:20:37 10° N 18:26:15 56° ENE 18:27:07 51° ESE visible
28 Oct 5.3 20:04:17 10° NNW 20:09:12 30° W 20:09:27 30° W visible
29 Oct 5.4 16:30:41 10° NNE 16:33:34 14° NE 16:36:26 10° ENE visible
29 Oct 3.8 18:12:30 10° N 18:18:09 56° ENE 18:19:36 44° ESE visible
29 Oct 5.3 19:56:11 10° NNW 20:01:06 30° W 20:01:56 29° WSW visible
30 Oct 5.4 16:22:35 10° NNE 16:25:27 14° NE 16:28:19 10° ENE visible
30 Oct 3.8 18:04:24 10° N 18:10:04 56° ENE 18:12:13 36° SE visible
30 Oct 5.4 19:48:04 10° NNW 19:53:00 30° W 19:54:33 27° WSW visible
31 Oct 3.8 17:56:18 10° N 18:01:57 55° ENE 18:04:59 27° SE visible
31 Oct 5.4 19:39:57 10° NNW 19:44:54 31° W 19:47:20 22° SW visible
01 Nov 3.8 17:48:12 10° N 17:53:52 55° ENE 17:58:02 18° SE visible
01 Nov 5.4 19:31:50 10° NNW 19:36:48 31° W 19:40:24 16° SW visible
